Time,TemperatureF,DewpointF,PressureIn,WindDirection,WindDirectionDegrees,WindSpeedMPH,WindSpeedGustMPH,Humidity,HourlyPrecipIn,Conditions,Clouds,dailyrainin,SoftwareType,DateUTC
2013-08-29 00:10:00,67.8,36.0,29.98,South,189,0.0,3.0,31,0.00,,,0.00,weatherlink.com 1.10,2013-08-29 06:10:00,
2013-08-29 00:25:00,67.3,36.0,29.99,South,189,0.0,3.0,32,0.00,,,0.00,weatherlink.com 1.10,2013-08-29 06:25:00,
2013-08-29 00:40:00,68.6,37.0,29.99,North,4,2.0,5.0,31,0.00,,,0.00,weatherlink.com 1.10,2013-08-29 06:40:00,
2013-08-29 00:55:00,67.1,37.0,29.99,East,91,1.0,3.0,33,0.00,,,0.00,weatherlink.com 1.10,2013-08-29 06:55:00,
2013-08-29 01:10:00,65.0,36.0,29.99,ESE,122,0.0,4.0,34,0.00,,,0.00,weatherlink.com 1.10,2013-08-29 07:10:00,
2013-08-29 01:25:00,62.0,37.0,30.00,ESE,122,0.0,3.0,40,0.00,,,0.00,weatherlink.com 1.10,2013-08-29 07:25:00,
2013-08-29 01:40:00,61.0,38.0,30.00,SW,218,3.0,5.0,42,0.00,,,0.00,weatherlink.com 1.10,2013-08-29 07:40:00,
2013-08-29 01:55:00,59.8,38.0,30.00,SW,223,2.0,4.0,45,0.00,,,0.00,weatherlink.com 1.10,2013-08-29 07:55:00,
2013-08-29 02:11:00,61.8,36.0,30.00,West,265,4.0,7.0,39,0.00,,,0.00,weatherlink.com 1.10,2013-08-29 08:11:00,
2013-08-29 02:26:00,62.3,36.0,30.01,WSW,241,3.0,4.0,38,0.00,,,0.00,weatherlink.com 1.10,2013-08-29 08:26:00,
2013-08-29 02:41:00,61.5,37.0,30.01,WSW,242,4.0,7.0,40,0.00,,,0.00,weatherlink.com 1.10,2013-08-29 08:41:00,
2013-08-29 02:56:00,61.8,36.0,30.01,West,271,0.0,4.0,38,0.00,,,0.00,weatherlink.com 1.10,2013-08-29 08:56:00,
2013-08-29 03:11:00,58.7,36.0,30.02,SSW,210,1.0,6.0,43,0.00,,,0.00,weatherlink.com 1.10,2013-08-29 09:11:00,
2013-08-29 03:26:00,59.6,35.0,30.02,WSW,249,2.0,4.0,40,0.00,,,0.00,weatherlink.com 1.10,2013-08-29 09:26:00,
2013-08-29 03:41:00,58.0,35.0,30.02,West,259,0.0,6.0,43,0.00,,,0.00,weatherlink.com 1.10,2013-08-29 09:41:00,
2013-08-29 03:56:00,57.6,36.0,30.03,West,259,3.0,3.0,45,0.00,,,0.00,weatherlink.com 1.10,2013-08-29 09:56:00,
2013-08-29 04:11:00,56.7,36.0,30.03,WSW,237,2.0,7.0,46,0.00,,,0.00,weatherlink.com 1.10,2013-08-29 10:11:00,
2013-08-29 04:26:00,58.0,34.0,30.03,WSW,238,2.0,5.0,41,0.00,,,0.00,weatherlink.com 1.10,2013-08-29 10:26:00,
2013-08-29 04:41:00,57.5,34.0,30.04,WSW,238,3.0,4.0,41,0.00,,,0.00,weatherlink.com 1.10,2013-08-29 10:41:00,
2013-08-29 04:56:00,57.5,35.0,30.04,WSW,239,4.0,5.0,43,0.00,,,0.00,weatherlink.com 1.10,2013-08-29 10:56:00,
2013-08-29 05:11:00,58.3,34.0,30.04,West,269,0.0,4.0,40,0.00,,,0.00,weatherlink.com 1.10,2013-08-29 11:11:00,
2013-08-29 05:26:00,58.4,35.0,30.04,West,269,1.0,3.0,42,0.00,,,0.00,weatherlink.com 1.10,2013-08-29 11:26:00,
2013-08-29 05:41:00,59.0,37.0,30.05,West,269,2.0,2.0,44,0.00,,,0.00,weatherlink.com 1.10,2013-08-29 11:41:00,
2013-08-29 05:56:00,58.3,36.0,30.05,West,269,0.0,2.0,43,0.00,,,0.00,weatherlink.com 1.10,2013-08-29 11:56:00,
2013-08-29 06:11:00,57.5,37.0,30.05,West,269,2.0,3.0,47,0.00,,,0.00,weatherlink.com 1.10,2013-08-29 12:11:00,
2013-08-29 06:41:00,59.2,36.0,30.06,West,268,1.0,4.0,42,0.00,,,0.00,weatherlink.com 1.10,2013-08-29 12:41:00,
2013-08-29 06:56:00,58.3,38.0,30.06,West,268,1.0,3.0,47,0.00,,,0.00,weatherlink.com 1.10,2013-08-29 12:56:00,
2013-08-29 07:11:00,57.8,37.0,30.06,West,267,1.0,4.0,46,0.00,,,0.00,weatherlink.com 1.10,2013-08-29 13:11:00,
2013-08-29 07:26:00,60.9,37.0,30.07,West,267,2.0,2.0,42,0.00,,,0.00,weatherlink.com 1.10,2013-08-29 13:26:00,
2013-08-29 07:41:00,63.7,41.0,30.07,WSW,251,0.0,2.0,44,0.00,,,0.00,weatherlink.com 1.10,2013-08-29 13:41:00,
2013-08-29 07:56:00,65.8,41.0,30.07,WSW,251,1.0,3.0,41,0.00,,,0.00,weatherlink.com 1.10,2013-08-29 13:56:00,
2013-08-29 08:11:00,69.9,40.0,30.07,WSW,251,0.0,2.0,34,0.00,,,0.00,weatherlink.com 1.10,2013-08-29 14:11:00,
2013-08-29 08:26:00,72.5,38.0,30.07,SE,131,2.0,3.0,29,0.00,,,0.00,weatherlink.com 1.10,2013-08-29 14:26:00,
2013-08-29 08:41:00,74.6,39.0,30.07,East,87,1.0,3.0,28,0.00,,,0.00,weatherlink.com 1.10,2013-08-29 14:41:00,
2013-08-29 08:56:00,74.4,43.0,30.07,East,90,6.0,8.0,32,0.00,,,0.00,weatherlink.com 1.10,2013-08-29 14:56:00,
2013-08-29 09:11:00,75.8,38.0,30.07,East,89,6.0,6.0,26,0.00,,,0.00,weatherlink.com 1.10,2013-08-29 15:11:00,
2013-08-29 09:26:00,75.8,41.0,30.07,ENE,74,3.0,6.0,29,0.00,,,0.00,weatherlink.com 1.10,2013-08-29 15:26:00,
2013-08-29 09:41:00,75.3,42.0,30.07,ENE,66,5.0,9.0,30,0.00,,,0.00,weatherlink.com 1.10,2013-08-29 15:41:00,
2013-08-29 09:56:00,75.6,42.0,30.07,NE,56,5.0,9.0,30,0.00,,,0.00,weatherlink.com 1.10,2013-08-29 15:56:00,
2013-08-29 10:11:00,76.0,41.0,30.07,East,85,5.0,11.0,28,0.00,,,0.00,weatherlink.com 1.10,2013-08-29 16:11:00,
2013-08-29 10:26:00,76.5,41.0,30.07,ENE,66,4.0,11.0,28,0.00,,,0.00,weatherlink.com 1.10,2013-08-29 16:26:00,
2013-08-29 10:41:00,77.4,40.0,30.07,ENE,57,7.0,9.0,26,0.00,,,0.00,weatherlink.com 1.10,2013-08-29 16:41:00,
2013-08-29 10:56:00,78.1,37.0,30.07,East,100,3.0,8.0,23,0.00,,,0.00,weatherlink.com 1.10,2013-08-29 16:56:00,
2013-08-29 11:11:00,78.8,40.0,30.07,ENE,77,4.0,8.0,25,0.00,,,0.00,weatherlink.com 1.10,2013-08-29 17:11:00,
2013-08-29 11:26:00,77.7,40.0,30.07,East,95,3.0,11.0,26,0.00,,,0.00,weatherlink.com 1.10,2013-08-29 17:26:00,
2013-08-29 11:41:00,79.8,41.0,30.07,East,91,3.0,11.0,25,0.00,,,0.00,weatherlink.com 1.10,2013-08-29 17:41:00,
2013-08-29 11:56:00,78.1,40.0,30.06,East,83,6.0,8.0,26,0.00,,,0.00,weatherlink.com 1.10,2013-08-29 17:56:00,
2013-08-29 12:11:00,77.9,42.0,30.06,ENE,70,7.0,8.0,28,0.00,,,0.00,weatherlink.com 1.10,2013-08-29 18:11:00,
2013-08-29 12:26:00,80.1,40.0,30.05,East,90,5.0,13.0,24,0.00,,,0.00,weatherlink.com 1.10,2013-08-29 18:26:00,
2013-08-29 12:41:00,79.8,39.0,30.05,ESE,116,7.0,11.0,23,0.00,,,0.00,weatherlink.com 1.10,2013-08-29 18:41:00,
2013-08-29 12:56:00,78.3,42.0,30.04,ENE,72,4.0,8.0,27,0.00,,,0.00,weatherlink.com 1.10,2013-08-29 18:56:00,
2013-08-29 13:11:00,80.7,40.0,30.04,ENE,70,7.0,14.0,23,0.00,,,0.00,weatherlink.com 1.10,2013-08-29 19:11:00,
2013-08-29 13:26:00,81.4,40.0,30.03,East,81,6.0,10.0,23,0.00,,,0.00,weatherlink.com 1.10,2013-08-29 19:26:00,
2013-08-29 13:41:00,81.2,41.0,30.03,NE,51,6.0,11.0,24,0.00,,,0.00,weatherlink.com 1.10,2013-08-29 19:41:00,
2013-08-29 13:56:00,82.0,41.0,30.02,ESE,106,11.0,12.0,23,0.00,,,0.00,weatherlink.com 1.10,2013-08-29 19:56:00,
2013-08-29 14:11:00,82.2,41.0,30.02,East,87,8.0,10.0,23,0.00,,,0.00,weatherlink.com 1.10,2013-08-29 20:11:00,
2013-08-29 14:26:00,83.6,42.0,30.01,East,84,11.0,11.0,23,0.00,,,0.00,weatherlink.com 1.10,2013-08-29 20:26:00,
2013-08-29 14:41:00,83.0,40.0,30.00,East,89,3.0,11.0,22,0.00,,,0.00,weatherlink.com 1.10,2013-08-29 20:41:00,
2013-08-29 14:56:00,83.0,42.0,29.99,NE,50,5.0,7.0,23,0.00,,,0.00,weatherlink.com 1.10,2013-08-29 20:56:00,
2013-08-29 15:11:00,84.5,40.0,29.98,East,82,6.0,10.0,21,0.00,,,0.00,weatherlink.com 1.10,2013-08-29 21:11:00,
2013-08-29 15:26:00,84.1,41.0,29.99,East,89,3.0,8.0,22,0.00,,,0.00,weatherlink.com 1.10,2013-08-29 21:26:00,
2013-08-29 15:41:00,84.5,44.0,30.00,ENE,63,0.0,4.0,24,0.00,,,0.00,weatherlink.com 1.10,2013-08-29 21:41:00,
2013-08-29 15:57:00,77.7,49.0,30.01,WNW,293,8.0,26.0,37,0.00,,,0.00,weatherlink.com 1.10,2013-08-29 21:57:00,
2013-08-29 16:27:00,81.8,44.0,29.99,North,10,2.0,5.0,26,0.00,,,0.00,weatherlink.com 1.10,2013-08-29 22:27:00,
2013-08-29 16:42:00,83.8,43.0,29.98,NNE,33,4.0,7.0,24,0.00,,,0.00,weatherlink.com 1.10,2013-08-29 22:42:00,
2013-08-29 16:57:00,84.0,41.0,29.98,NNE,20,3.0,7.0,22,0.00,,,0.00,weatherlink.com 1.10,2013-08-29 22:57:00,
2013-08-29 17:12:00,84.5,42.0,29.98,ESE,107,0.0,8.0,22,0.00,,,0.00,weatherlink.com 1.10,2013-08-29 23:12:00,
2013-08-29 17:27:00,83.4,42.0,29.98,NNE,20,1.0,6.0,23,0.00,,,0.00,weatherlink.com 1.10,2013-08-29 23:27:00,
2013-08-29 17:42:00,82.2,44.0,30.02,WSW,257,6.0,13.0,26,0.00,,,0.00,weatherlink.com 1.10,2013-08-29 23:42:00,
2013-08-29 17:57:00,70.9,54.0,30.01,SE,133,3.0,9.0,55,0.05,,,0.05,weatherlink.com 1.10,2013-08-29 23:57:00,
2013-08-29 18:12:00,72.7,55.0,30.00,SSE,165,0.0,16.0,54,0.05,,,0.05,weatherlink.com 1.10,2013-08-30 00:12:00,
2013-08-29 18:27:00,76.5,52.0,29.99,North,4,1.0,5.0,43,0.05,,,0.05,weatherlink.com 1.10,2013-08-30 00:27:00,
2013-08-29 18:42:00,78.5,56.0,29.99,SW,226,4.0,5.0,46,0.05,,,0.05,weatherlink.com 1.10,2013-08-30 00:42:00,
2013-08-29 18:57:00,77.9,54.0,30.00,ENE,63,7.0,8.0,43,0.00,,,0.05,weatherlink.com 1.10,2013-08-30 00:57:00,
2013-08-29 19:12:00,78.6,57.0,29.99,NE,52,4.0,5.0,48,0.00,,,0.05,weatherlink.com 1.10,2013-08-30 01:12:00,
2013-08-29 19:27:00,73.2,54.0,30.00,NE,56,1.0,4.0,51,0.00,,,0.05,weatherlink.com 1.10,2013-08-30 01:27:00,
2013-08-29 19:42:00,70.3,57.0,30.01,SW,216,3.0,5.0,63,0.00,,,0.05,weatherlink.com 1.10,2013-08-30 01:42:00,
2013-08-29 19:57:00,69.8,54.0,30.01,SW,215,3.0,4.0,57,0.00,,,0.05,weatherlink.com 1.10,2013-08-30 01:57:00,
2013-08-29 20:12:00,69.6,54.0,30.02,SW,214,6.0,8.0,58,0.00,,,0.05,weatherlink.com 1.10,2013-08-30 02:12:00,
2013-08-29 20:27:00,69.6,53.0,30.03,South,175,3.0,7.0,55,0.00,,,0.05,weatherlink.com 1.10,2013-08-30 02:27:00,
2013-08-29 20:42:00,69.1,52.0,30.04,South,175,0.0,4.0,55,0.00,,,0.05,weatherlink.com 1.10,2013-08-30 02:42:00,
2013-08-29 20:57:00,74.2,45.0,30.03,East,94,3.0,10.0,35,0.00,,,0.05,weatherlink.com 1.10,2013-08-30 02:57:00,
2013-08-29 21:12:00,74.2,46.0,30.05,SW,226,6.0,7.0,37,0.00,,,0.05,weatherlink.com 1.10,2013-08-30 03:12:00,
2013-08-29 21:27:00,70.8,49.0,30.05,SW,226,0.0,5.0,47,0.00,,,0.05,weatherlink.com 1.10,2013-08-30 03:27:00,
2013-08-29 21:42:00,68.8,50.0,30.06,SW,226,5.0,7.0,52,0.00,,,0.05,weatherlink.com 1.10,2013-08-30 03:42:00,
2013-08-29 21:57:00,68.6,49.0,30.07,NNE,24,2.0,9.0,49,0.00,,,0.05,weatherlink.com 1.10,2013-08-30 03:57:00,
2013-08-29 22:12:00,67.8,47.0,30.08,NNE,25,0.0,2.0,48,0.00,,,0.05,weatherlink.com 1.10,2013-08-30 04:12:00,
2013-08-29 22:27:00,69.4,45.0,30.08,NNE,27,0.0,4.0,42,0.00,,,0.05,weatherlink.com 1.10,2013-08-30 04:27:00,
2013-08-29 22:42:00,66.9,48.0,30.09,SW,214,3.0,7.0,50,0.00,,,0.05,weatherlink.com 1.10,2013-08-30 04:42:00,
2013-08-29 22:57:00,67.3,47.0,30.09,SW,216,3.0,6.0,48,0.00,,,0.05,weatherlink.com 1.10,2013-08-30 04:57:00,
2013-08-29 23:12:00,65.6,47.0,30.09,SW,216,5.0,6.0,52,0.00,,,0.05,weatherlink.com 1.10,2013-08-30 05:12:00,
2013-08-29 23:27:00,64.7,47.0,30.08,SSW,203,3.0,7.0,53,0.00,,,0.05,weatherlink.com 1.10,2013-08-30 05:27:00,
2013-08-29 23:42:00,64.0,47.0,30.09,SSW,208,3.0,5.0,55,0.00,,,0.05,weatherlink.com 1.10,2013-08-30 05:42:00,
2013-08-29 23:57:00,62.0,46.0,30.09,SSW,208,3.0,4.0,57,0.00,,,0.05,weatherlink.com 1.10,2013-08-30 05:57:00,